Regional Weather Roundup
Issued by NWS Portland, ME

Current Version | Previous Version | Text Only | Print | Product List | Glossary Off
Versions: 1 2 3 4 5 6 7 8 9 10 11 12 13 14 15 16 17 18 19 20 21 22 23 24 25 26 27 28 29 30 31 32 33 34 35 36 37 38 39 40 41 42 43 44 45 46 47 48 49 50

000
ASUS41 KGYX 010705
RWRGYX
WEATHER ROUNDUP FOR MAINE AND NEW HAMPSHIRE
NATIONAL WEATHER SERVICE GRAY ME
300 AM EDT WED OCT 01 2014

MEZ002-005-006-010-012-015-018-020-021-024-026-027-029-010800-
MAINE

CITY           SKY/WX    TMP DP  RH WIND       PRES   REMARKS
PORTLAND       CLOUDY    57  51  80 N7        30.06F
SANFORD        CLOUDY    55  48  76 N9        30.06F
BAR HARBOR     CLOUDY    55  54  94 N6        30.07F
WISCASSET      CLOUDY    57  52  83 VRB5      30.08S
ROCKLAND       CLOUDY    55  54  94 NE6       30.05F
FRYEBURG       CLOUDY    57  53  86 CALM      30.08F
LEWISTONAUBURN CLOUDY    55  50  82 N6        30.08S
AUGUSTA        MOCLDY    54  50  86 N7        30.08F
WATERVILLE     PTCLDY    54  46  76 N7        30.04F
BANGOR         MOCLDY    53  49  86 N6        30.09F
GREENVILLE       N/A     52  50  93 NE3       30.08F
MILLINOCKET    CLOUDY    52  48  86 N3        30.13S
HOULTON        CLOUDY    50  46  86 N6        30.11S
PRESQUE ISLE   CLOUDY    48  43  81 N8        30.13S
FRENCHVILLE    CLOUDY    42  42 100 N8        30.14R FOG
CARIBOU        CLOUDY    48  45  89 N3        30.13S
$$

NHZ002-005-008-009-011-012-014-010800-
NEW HAMPSHIRE

CITY           SKY/WX    TMP DP  RH WIND       PRES   REMARKS
PORTSMOUTH     CLOUDY    57  53  86 N7        30.04F
ROCHESTER      CLOUDY    57  52  83 N5        30.05F
NASHUA         LGT RAIN  58  57  96 CALM      30.05F
MANCHESTER     DRIZZLE   58  54  86 N3        30.03F
CONCORD        CLOUDY    57  53  86 N5        30.05F
LACONIA        CLOUDY    57  52  82 NE8       30.05F
PLYMOUTH       CLOUDY    57  56  98 CALM      30.07S
BERLIN         CLOUDY    52  51  97 NE3       30.09F
WHITEFIELD     PTCLDY    55  50  83 CALM      30.07F
JAFFREY        LGT RAIN  55  54  96 VRB5      30.06F
LEBANON        CLOUDY    59  53  80 CALM      30.06F
MT WASHINGTON  FOG       41  41 100 NE18        N/A  VSB 1/16
$$

VTZ005-007-008-010800-
VERMONT

CITY           SKY/WX    TMP DP  RH WIND       PRES   REMARKS
ST JOHNSBURY     N/A     54  53  97 MISG      30.06S
MONTPELIER     CLOUDY    54  53  97 E3        30.10F
BURLINGTON     CLOUDY    55  52  89 N8        30.07S
$$

MAZ007-012-024-CTZ003-RIZ002-NYZ038-NYZ072-010800-
SOUTHERN NEW ENGLAND AND NY

CITY           SKY/WX    TMP DP  RH WIND       PRES   REMARKS
BOSTON         CLOUDY    57  55  93 N13       30.01F
WORCESTER      CLOUDY    54  53  97 NE9       30.04S
NANTUCKET      LGT RAIN  62  61  96 N17       29.94F
PROVIDENCE     CLOUDY    57  55  93 N12       30.00F
HARTFORD       CLOUDY    59  56  89 N8        30.01F
ALBANY         CLOUDY    60  56  86 CALM      30.03S
NEW YORK CITY  CLOUDY    62  59  90 NE10      29.98F
$$

ANZ081-ANZ082-ANZ150-NHZ014-MEZ023>029-010800-
COASTAL MARINE OBSERVATIONS

STATION/POSITION TIME  TEMP    WIND        PRES    WAVE
                       AIR SEA DIR/SP/G            HT/PER
                 (UTC) (F)     (DEG/KT/KT) (MB)    (FT/S)
MATINICUS ROCK   0600           40/ 14/ 16 1017.4F
PORTLAND WX BUOY 0650   57 58   20/ 12/ 14 1017.3F   2/ 6
WELLS            0600   57 57   10/  7/  9 1017.1S
ISLE OF SHOALS   0600   58      30/ 16/ 18 1017.0R
JEFFREYS LEDGE   0621      58                N/A     4/ 6
CASHES LEDGE BUO 0650   57 59              1015.9F   3/ 5
$$

.............KEY..............
   WCI - WIND CHILL
   TC  - TEMPERATURE IN CELSIUS
   VSB - VISIBILITY IN MILES
   HX  - HEAT INDEX
   FAIR- INDICATES FEW OR NO CLOUDS BELOW 12,000 FT, WITH NO
         SIGNIFICANT WEATHER AND/OR OBSTRUCTIONS TO VISIBILITY.




USA.gov is the U.S. government's official web portal to all federal, state and local government web resources and services.